This is the latest recevied weather packets stored in our database for station/object WB4ROX. If no packets are shown the sender has not sent any weather packets the latest 1 day(s).
| Time | Temp. | Humidity | Pressure | Rain* | Wind** | Luminosity | Snow |
|---|---|---|---|---|---|---|---|
| 1778017467 | 17.22° C | 44% | 1016.9 hPa | 0 mm | 0.89 m/s, 106° | 230 W/m² | - |
| 1778017164 | 16.67° C | 46% | 1017.1 hPa | 0 mm | 1.34 m/s, 131° | 520 W/m² | - |
| 1778016861 | 15.56° C | 47% | 1017 hPa | 0 mm | 0.89 m/s, 107° | 537 W/m² | - |
| 1778016557 | 15.56° C | 47% | 1016.9 hPa | 0 mm | 0.89 m/s, 98° | 215 W/m² | - |
| 1778016254 | 15.56° C | 47% | 1017.1 hPa | 0 mm | 0 m/s | 204 W/m² | - |
| 1778015951 | 16.67° C | 45% | 1017.3 hPa | 0 mm | 0 m/s | 137 W/m² | - |
| 1778015649 | 16.67° C | 44% | 1017.3 hPa | 0 mm | 0.89 m/s, 123° | 283 W/m² | - |
| 1778015344 | 16.11° C | 44% | 1017.4 hPa | 0 mm | 0.45 m/s, 51° | 275 W/m² | - |
| 1778015042 | 16.11° C | 44% | 1017.4 hPa | 0 mm | 0.45 m/s, 34° | 357 W/m² | - |
| 1778014739 | 17.22° C | 42% | 1017.5 hPa | 0 mm | 0.89 m/s, 166° | 225 W/m² | - |
| 1778014437 | 16.67° C | 43% | 1017.5 hPa | 0 mm | 1.34 m/s, 242° | 341 W/m² | - |
| 1778014133 | 16.67° C | 44% | 1017.5 hPa | 0 mm | 0.45 m/s, 84° | 345 W/m² | - |
| 1778013831 | 16.11° C | 45% | 1017.7 hPa | 0 mm | 0.45 m/s, 104° | 456 W/m² | - |
| 1778013528 | 16.67° C | 42% | 1017.9 hPa | 0 mm | 1.34 m/s, 120° | 295 W/m² | - |
| 1778013224 | 17.22° C | 42% | 1017.7 hPa | 0 mm | 0.45 m/s, 67° | 329 W/m² | - |
| 1778012921 | 16.67° C | 44% | 1017.6 hPa | 0 mm | 0.45 m/s, 74° | 345 W/m² | - |
| 1778012617 | 16.11° C | 44% | 1017.6 hPa | 0 mm | 0.45 m/s, 171° | 315 W/m² | - |
| 1778012314 | 16.11° C | 44% | 1017.7 hPa | 0 mm | 1.79 m/s, 132° | 246 W/m² | - |
| 1778012011 | 16.67° C | 44% | 1017.6 hPa | 0 mm | 0 m/s | 241 W/m² | - |
| 1778011710 | 16.67° C | 44% | 1018.1 hPa | 0 mm | 1.34 m/s, 311° | 399 W/m² | - |
| 1778011406 | 16.67° C | 44% | 1017.8 hPa | 0 mm | 0.89 m/s, 293° | 379 W/m² | - |
| 1778011102 | 16.67° C | 44% | 1017.8 hPa | 0 mm | 0.89 m/s, 60° | 324 W/m² | - |
| 1778010799 | 17.22° C | 42% | 1017.9 hPa | 0 mm | 1.79 m/s, 107° | 408 W/m² | - |
| 1778010496 | 17.22° C | 43% | 1018.2 hPa | 0 mm | 0.45 m/s, 62° | 461 W/m² | - |
| 1778010194 | 17.22° C | 43% | 1017.9 hPa | 0 mm | 0.89 m/s, 112° | 454 W/m² | - |
* Rain latest hour (hover to see other rain measurements)
** Current wind speed in m/s (hover to see current wind gust speed)